Location: Crescent
(42.8242°N, 73.7329°W)
Time: 05:10:52
(UTC+00:00)

Vanguard 2 Rocket - Pass Details

Date: 21 February 2026
Orbit: 553 x 3286 km, 32.9° (Epoch: 13 March)

Event Time Altitude Azimuth Distance (km) Brightness Sun altitude
Rises 18:48:26 0° 260° (W) 7,244 12.0 32.1°
Reaches altitude 10° 18:53:37 10° 257° (WSW) 6,115 11.8 31.7°
Maximum altitude 19:11:24 57° 186° (S) 2,781 10.5 29.9°
Drops below altitude 10° 19:22:35 10° 112° (ESE) 4,012 10.1 28.7°
Sets 19:25:15 0° 108° (ESE) 4,697 10.4 28.4°
